Regional Weather Roundup
Issued by NWS Upton, NY

Current Version | Previous Version | Text Only | Print | Product List | Glossary Off
Versions: 1 2 3 4 5 6 7 8 9 10 11 12 13 14 15 16 17 18 19 20 21 22 23 24 25 26 27
000 ASUS41 KOKX 260305 RWROKX REGIONAL WEATHER ROUNDUP NATIONAL WEATHER SERVICE NEW YORK NY 1100 PM EDT SAT OCT 25 2014 NOTE: "FAIR" INDICATES FEW OR NO CLOUDS BELOW 12,000 FEET WITH NO SIGNIFICANT WEATHER AND/OR OBSTRUCTIONS TO VISIBILITY. NYZ071-072-176-178-NJZ106-104-260400- NEW YORK CITY METRO AREA CITY SKY/WX TMP DP RH WIND PRES REMARKS CENTRAL PARK CLEAR 62 44 51 W8G20 29.61F LAGUARDIA APRT PTCLDY 63 44 50 SW17G28 29.58F KENNEDY INTL PTCLDY 61 47 59 SW18 29.61F NEWARK/LIBERTY PTCLDY 61 45 55 SW14 29.60F BRNX BOT. GARD N/A 63 43 48 SW8 29.60S TETERBORO PTCLDY 60 44 55 SW12 29.58F $$ NYZ177-179-078>081-260400- LONG ISLAND NEW YORK CITY SKY/WX TMP DP RH WIND PRES REMARKS FARMINGDALE CLEAR 61 46 57 SW10 29.60F ISLIP PTCLDY 60 48 64 SW10G21 29.58F SHIRLEY CLEAR 61 49 64 SW10 29.60F WESTHAMPTON CLEAR 61 49 64 W14 29.60F MONTAUK POINT N/A 62 50 64 SW8 29.59F $$ NYZ052-065-067-260400- HUDSON VALLEY CITY SKY/WX TMP DP RH WIND PRES REMARKS WHITE PLAINS CLEAR 60 43 53 VRB5 29.57F NEWBURGH MOCLDY 57 46 67 NW7 29.59R MONTGOMERY RAIN 53 48 83 NW3 29.58R POUGHKEEPSIE CLOUDY 57 46 66 CALM 29.57F ALBANY PTCLDY 53 47 79 W8 29.56S $$ NJZ001-105-106-008-010-013-015-019>022-104-260400- NEW JERSEY CITY SKY/WX TMP DP RH WIND PRES REMARKS NEWARK/LIBERTY PTCLDY 61 45 55 SW14 29.60F TETERBORO PTCLDY 60 44 55 SW12 29.58F CALDWELL PTCLDY 60 43 53 W6 29.59F MORRISTOWN MOCLDY 61 45 55 SW5 29.59F SOMERVILLE MOCLDY 57 45 64 VRB3 29.59F SUSSEX MOCLDY 60 45 57 SW7 29.58S ANDOVER N/A 54 44 69 CALM 29.59F TRENTON PTCLDY 58 43 57 SW5 29.63F MILLVILLE CLEAR 58 47 66 SW7 29.68F ATLANTIC CITY CLEAR 56 48 74 SW7 29.68F WRIGHTSTOWN CLEAR 56 43 60 SW10 29.62F TOMS RIVER CLEAR 57 45 62 SW8 29.65F BELMAR CLEAR 61 41 48 SW13 29.62F $$ PAZ047>061-062-071-260400- EASTERN PENNSYLVANIA CITY SKY/WX TMP DP RH WIND PRES REMARKS PHILADELPHIA CLEAR 59 44 57 SW12 29.66F ALLENTOWN PTCLDY 56 44 64 SW9 29.60F SCRANTON CLOUDY 60 47 61 NW9 29.61R $$ CTZ002-004>006-009-010-012-RIZ004-006-007-MAZ004-011-015-260400- SOUTHERN NEW ENGLAND IN CT CITY SKY/WX TMP DP RH WIND PRES REMARKS BRADLEY INTL CLOUDY 57 44 62 SW5 29.53F HARTFORD CLOUDY 59 46 62 SW12G18 29.55S DANBURY MOCLDY 60 42 51 W8 29.58F WTRBRY/OXFORD CLOUDY 57 43 58 NW5 29.57F BRIDGEPORT MOCLDY 62 51 67 SW15 29.57F MERIDEN CLOUDY 52 48 86 CALM 29.56F NEW HAVEN MOCLDY 63 52 67 SW8 29.56F CHESTER FAIR 57 48 72 SW7 29.57F GROTON CLEAR 60 51 72 SW12 29.56F WILLIMANTIC CLOUDY 50 46 86 CALM 29.56F IN RI CITY SKY/WX TMP DP RH WIND PRES REMARKS PROVIDENCE CLEAR 54 48 80 S7 29.56F BLOCK ISLAND CLEAR 61 52 72 SW15 29.58F WESTERLY CLEAR 61 49 64 SW10 29.57F IN MA CITY SKY/WX TMP DP RH WIND PRES REMARKS BOSTON CLOUDY 56 45 66 SW10 29.52F WORCESTER CLOUDY 52 43 71 SW14 29.52F WESTFIELD CLOUDY 54 45 71 SW7 29.53F PROVINCETOWN CLOUDY 55 1 11 SW12 29.55F NANTUCKET MOCLDY 59 53 80 SW12 29.59F $$ ANZ330-335-338-340-345-350-353-355-260400- COASTAL MARINE OBSERVATIONS STATION/POSITION TIME SKY/WX TEMP WIND PRES VSBY WAVE AIR SEA DIR/SP/G HT/PER (UTC) (F) (DEG/KT/KT) (MB) (MI) (FT/S) NY HARB ENTRANCE NOT AVBL 4S FIRE IS 0300 62 N/A 4/ 5 20S FIRE ISLAND 0200 65 63 240/ 21/ 25 1003.1 4/ 5 23SW MTP 0300 N/A 5/ 5 HUDSON CANYON 0300 64 65 240/ 21/ 25 1003.9 6/ 6 EXECUTION ROCKS 0300 63 61 230/ 17/ 21 N/A WESTERN LI SOUND 0300 63 220/ 17/ 21 N/A 1/ 3 CENTRAL LI SOUND 0200 63 62 220/ 17/ 21 N/A 2/ 4 EASTERN LI SOUND 0200 62 63 230/ 16/ 21 N/A ROBBINS REEF 0300 62 250/ 15/ 19 1001.0 $$ >>>>>>>>>>>>>>>>>>>>>>>>>>>> KEY <<<<<<<<<<<<<<<<<<<<<<<<<<< > < > SKY/WX - SKY CONDITION/PRESENT WEATHER < > TMP - TEMPERATURE IN FAHRENHEIT < > DP - DEWPOINT IN FAHRENHEIT < > RH - RELATIVE HUMIDITY IN PERCENT < > WIND - DIRECTION AND SPEED IN MPH < > PRES - MEAN SEA LEVEL PRESSURE IN INCHES OF HG < > WCI - WIND CHILL INDEX < > VSB - VISIBILITY IN MILES < > HX - HEAT INDEX < > TC - TEMPERATURE IN CELSIUS < > VRB - VARIABLE WIND DIRECTION < > < >>>>>>>>>>>>>>>>>>>>>>>>>>>> KEY <<<<<<<<<<<<<<<<<<<<<<<<<<<

USA.gov is the U.S. government's official web portal to all federal, state and local government web resources and services.